• Join FlightAware (Why Join?)
  • Login
  • US Flag 
05:52PM EDT


 

Airport Tracker/Info


-or-


 

Live Flight TrackerFlight Track Log ✈ N45NS ✈ 10-Nov-2013 ✈ KBJJ - KPWK

Flight Track Log - Related Links

Times and Time Zones

All times are in EST time to prevent confusion due to time zone crossing. See the N45NS flight status page for this flight to view local times or setup timezone preferences in your user account.

Time Position Orientation Groundspeed Altitude Reporting Facility
EST Latitude Longitude Course Direction KTS MPH feet Rate Location/Type
12:08PM 40.8561 -81.9306 330° Northwest 219 252 2,600  Level Cleveland Center
12:09PM 40.8308 -82.0031 245° Southwest 226 260 6,200 4,020 Climbing Cleveland Center
12:10PM 40.8392 -82.1092 276° West 244 281 11,000 3,900 Climbing Cleveland Center
12:11PM 40.8447 -82.1989 275° West 243 280 14,300 3,180 Climbing Cleveland Center
12:13PM 40.8561 -82.2875 280° West 251 289 17,600 2,460 Climbing Cleveland Center
12:14PM 41.0257 -82.5352 330° Northwest  Level Estimated
12:14PM 40.9119 -82.3436 323° Northwest 255 293 19,500  Level Cleveland Center
12:15PM 40.9697 -82.4000 324° Northwest 255 293 22,000 2,160 Climbing Cleveland Center
12:16PM 41.0308 -82.4589 324° Northwest 266 306 24,000 1,920 Climbing Cleveland Center
12:17PM 41.0961 -82.5208 324° Northwest 281 323 26,000 1,860 Climbing Cleveland Center
12:18PM 41.1611 -82.5839 324° Northwest 285 328 27,900 1,800 Climbing Cleveland Center
12:19PM 41.2256 -82.6467 324° Northwest 284 327 29,800 960 Climbing Cleveland Center
12:20PM 41.2925 -82.7106 324° Northwest 292 336 30,000 60 Climbing Cleveland Center
12:21PM 41.3756 -82.7922 324° Northwest 313 360 30,000  Level Cleveland Center
12:22PM 41.4494 -82.8647 324° Northwest 324 373 30,000  Level Cleveland Center
12:23PM 41.5244 -82.9367 324° Northwest 327 376 30,000  Level Cleveland Center
12:24PM 41.5989 -83.0103 324° Northwest 330 380 30,000  Level Cleveland Center
12:25PM 41.6694 -83.0797 324° Northwest 327 376 30,000  Level Cleveland Center
12:26PM 41.7431 -83.1528 323° Northwest 330 380 30,000  Level Cleveland Center
12:27PM 41.8153 -83.2278 322° Northwest 329 379 30,000  Level Cleveland Center
12:28PM 41.8636 -83.3500 298° West 308 354 30,000  Level Cleveland Center
12:29PM 41.8886 -83.4611 287° West 309 356 30,000  Level Cleveland Center
12:30PM 41.9142 -83.5719 287° West 308 354 30,000  Level Cleveland Center
12:31PM 41.9397 -83.6833 287° West 311 358 30,000  Level Cleveland Center
12:32PM 41.9653 -83.7944 287° West 311 358 30,000 -120 Level Cleveland Center
12:33PM 41.9903 -83.9053 287° West 310 357 29,800 -840 Descending Cleveland Center
12:34PM 42.0169 -84.0167 288° West 312 359 28,300 -900 Descending Cleveland Center
12:35PM 42.0475 -84.1514 287° West 314 361 28,000 -180 Descending Cleveland Center
12:36PM 42.0722 -84.2644 286° West 316 364 28,000 -60 Level Cleveland Center
12:37PM 42.0956 -84.3650 287° West 316 364 27,900 -1,020 Descending Cleveland Center
12:38PM 42.1103 -84.4347 286° West 310 357 26,500 -2,400 Descending Chicago Center
12:39PM 42.1342 -84.5442 286° West 305 351 24,200 -1,200 Descending Chicago Center
12:40PM 42.1597 -84.6575 287° West 313 360 24,000 -120 Descending Chicago Center
12:41PM 42.1853 -84.7739 287° West 320 368 24,000  Level Chicago Center
12:42PM 42.2153 -84.9128 286° West 322 371 24,000  Level Chicago Center
12:43PM 42.2406 -85.0306 286° West 326 375 24,000  Level Chicago Center
12:44PM 42.2658 -85.1492 286° West 329 379 24,000  Level Chicago Center
12:45PM 42.2908 -85.2669 286° West 327 376 24,000  Level Chicago Center
12:46PM 42.3161 -85.3850 286° West 327 376 24,000 -840 Level Chicago Center
12:47PM 42.3397 -85.4983 286° West 320 368 22,300 -1,800 Descending Chicago Center
12:48PM 42.3628 -85.6075 286° West 308 354 20,400 -1,140 Descending Chicago Center
12:49PM 42.3911 -85.7425 286° West 309 356 20,000 -240 Descending Chicago Center
12:50PM 42.4144 -85.8542 286° West 308 354 20,000  Level Chicago Center
12:51PM 42.4378 -85.9669 286° West 309 356 20,000 -120 Level Chicago Center
12:52PM 42.4600 -86.0803 285° West 309 356 19,800 -900 Descending Chicago Center
12:53PM 42.4628 -86.1986 272° West 315 362 18,200 -1,320 Descending Chicago Center
12:54PM 42.4544 -86.3194 265° West 322 371 17,100 -600 Descending Chicago Center
12:55PM 42.4464 -86.4614 266° West 314 361 17,000 -900 Descending Chicago Center
12:56PM 42.4408 -86.5767 266° West 308 354 15,300 -1,800 Descending Chicago Center
12:57PM 42.4342 -86.6892 265° West 300 345 13,300 -2,040 Descending Chicago Center
12:58PM 42.4286 -86.8075 266° West 312 359 11,200 -1,800 Descending Chicago Center
01:00PM 42.4222 -86.9197 266° West 302 348 9,500 -1,800 Descending Chicago Center
01:01PM 42.4147 -87.0333 265° West 259 298 7,500 -1,800 Descending Chicago Center
01:02PM 42.4083 -87.1297 265° West 259 298 5,900 -1,620 Descending Chicago Center
01:03PM 42.4042 -87.2289 267° West 264 304 4,200 -1,200 Descending Chicago Center
01:04PM 42.3972 -87.3217 264° West 263 303 3,500 -360 Descending Chicago Center
01:06PM 42.3333 -87.5333 248° West 245 282 3,000 -180 Descending Chicago TRACON
01:07PM 42.3169 -87.5894 248° West 244 281 3,000  Level Chicago Center
01:08PM 42.2936 -87.6747 250° West 244 281 3,000 -300 Level Chicago Center
01:09PM 42.2686 -87.7744 251° West 241 277 2,400 -300 Descending Chicago Center
01:10PM 42.2436 -87.8339 240° Southwest 231 266 2,400  Level Chicago Center
01:11PM 42.1906 -87.8664 204° Southwest 220 253 2,400  Level Chicago Center
01:13PM 42.1409 -87.9137 166° South  Level FlightAware Approximate
01:20PM 42.1143 -87.9015 166° South  Level Estimated
01:21PM 42.1143 -87.9015 166° South  Level Estimated
01:22PM 42.1143 -87.9015 166° South  Level Estimated